www.pogodaiklimat.ru

Погода и климат >> Архив погоды >> Туркменистан >> Бурдалык


ПОГОДА в Бурдалыке

  • Прогноз погоды в Бурдалыке
  • Монитор погоды в Бурдалыке

АРХИВ ПОГОДЫ в Бурдалыке

Время (UTC), дата Ветер
(напр.,м/с)
 
Видим.   Явления Облачность Т
(С)
Тd
(С)
f
(%)
Тe
(С)
Тes
(С)
Комфортность P
(гПа)
Po
(гПа)
Тmin
(С)
Tmax
(С)
R
(мм)
R24
(мм)
S
(см)
03 10.09 штиль 0 10 км ясно +12.6 +8.1 74 +12 +15 1020.8 995.3 +11.2
06 10.09 С 5 10 км ясно +23.4 +3.8 28 +23 +30 комфорт 1020.4 995.9 +11.2
09 10.09 С 6 10 км ясно +26.2 +4.1 24 +25 +30 комфорт 1019.0 994.6
12 10.09 С 5 10 км ясно +26.8 +6.4 27 +26 +28 жарко 1017.6 993.3
15 10.09 С 2 10 км ясно +23.0 +4.3 30 +23 +23 комфорт 1017.7 993.0 +27.0
18 10.09 С 1 10 км ясно +18.8 +5.6 42 +20 +20 1018.0 993.0 +27.0
21 10.09 С 1 10 км ясно +14.2 +5.7 57 +15 +15 1018.1 992.7
00 11.09 штиль 0 10 км ясно +13.4 +6.8 64 +13 +13 1018.3 992.8
03 11.09 С 2 10 км ясно +13.4 +7.3 67 +13 +15 1018.9 993.5 +13.2
06 11.09 С 3 10 км ясно +23.9 +8.1 36 +24 +34 комфорт 1018.6 994.0 +13.2
09 11.09 С 2 10 км ясно +28.2 +7.4 27 +28 +41 жарко 1017.7 993.4
12 11.09 С 2 10 км ясно +29.2 +5.9 23 +28 +31 жарко 1016.5 992.3
15 11.09 С 4 10 км ясно +25.4 +7.6 32 +25 +25 комфорт 1016.8 992.4 +29.4
18 11.09 З 3 10 км ясно +20.2 +6.5 41 +21 +21 комфорт 1017.3 992.4 +29.4
21 11.09 СЗ 2 10 км ясно +15.6 +7.6 59 +16 +16 1017.2 991.9
00 12.09 СЗ 1 10 км ясно +12.0 +6.5 69 +12 +12 1017.8 992.1
03 12.09 С 2 н/о +12.8 +7.4 70 +12 +14 1018.1 992.6 +11.8
06 12.09 С 2 10 км ясно +25.4 +8.6 34 +26 +38 жарко 1017.8 993.0 +11.8
09 12.09 С 1 10 км ясно +29.2 +7.7 26 +28 +44 жарко 1016.4 992.3
12 12.09 С 3 10 км ясно +28.9 +8.8 28 +28 +31 жарко 1015.0 990.8
15 12.09 С 1 10 км ясно +20.7 +12.4 59 +24 +24 комфорт 1015.5 990.7 +29.4
18 12.09 штиль 0 10 км ясно +15.6 +10.7 73 +15 +15 1016.0 990.7 +29.4
21 12.09 штиль 0 10 км ясно +12.8 +9.7 81 +12 +12 1014.8 989.4
00 13.09 штиль 0 10 км ясно +10.8 +8.0 83 +10 +10 1015.6 990.0
03 13.09 штиль 0 10 км ясно +12.5 +8.1 75 +12 +14 1015.8 990.3 +10.6
06 13.09 З 2 10 км ясно +22.6 +9.5 43 +24 +36 комфорт 1015.8 991.1 +10.6
09 13.09 З 2 10 км ясно +28.4 +8.2 28 +28 +41 жарко 1014.8 990.6
12 13.09 З 1 10 км ясно +30.6 +13.0 34 +32 +35 жарко 1012.9 989.0
15 13.09 СЗ 2 10 км ясно +22.7 +9.4 43 +24 +24 комфорт 1013.8 989.3 +30.8
18 13.09 С 1 10 км 4/0
[Ac cast]
+17.7 +11.3 66 +19 +19 1014.6 989.6 +30.8
21 13.09 штиль 0 10 км ясно +14.0 +8.0 67 +14 +14 1014.3 989.0
00 14.09 штиль 0 10 км 8/0
[Ci sp]
+12.2 +8.6 79 +12 +12 1015.0 989.5
03 14.09 штиль 0 10 км 8/0
[Ac cast]
+12.7 +7.3 70 +12 +13 1016.1 990.7 +12.0
06 14.09 З 2 10 км 8/0
[Ci sp]
+24.2 +9.8 40 +25 +35 комфорт 1015.9 991.4 +12.0
09 14.09 С 4 10 км 3/0
[Ci sp]
+30.0 +8.5 26 +29 +37 жарко 1014.5 990.5
12 14.09 С 4 10 км ясно +28.8 +8.1 27 +28 +30 жарко 1014.5 990.4
15 14.09 С 1 10 км ясно +24.2 +8.2 36 +25 +25 комфорт 1015.6 991.0 +30.2
18 14.09 СЗ 2 10 км ясно +21.6 +10.0 48 +23 +23 комфорт 1016.9 992.1 +30.2
21 14.09 С 1 10 км ясно +16.2 +10.7 70 +17 +17 1017.2 992.0
00 15.09 З 1 10 км ясно +13.8 +10.4 80 +14 +14 1017.6 992.2
03 15.09 штиль 0 10 км ясно +16.3 +10.0 66 +16 +18 1018.4 993.2 +13.6
06 15.09 З 1 10 км ясно +25.8 +10.2 37 +27 +40 жарко 1018.6 994.2 +13.6
09 15.09 З 1 10 км ясно +28.6 +8.6 29 +28 +43 жарко 1017.8 993.6
12 15.09 З 1 10 км ясно +28.9 +9.7 30 +29 +32 жарко 1017.3 993.1
15 15.09 С 1 10 км ясно +22.3 +9.3 43 +24 +24 комфорт 1018.3 993.6 +29.1
18 15.09 С 1 10 км ясно +17.6 +7.3 51 +19 +19 1019.3 994.2 +29.1
21 15.09 штиль 0 10 км ясно +13.4 +6.8 64 +13 +13 1019.1 993.7
00 16.09 штиль 0 10 км ясно +10.4 +6.4 76 +10 +10 1019.8 994.1
03 16.09 штиль 0 10 км ясно +13.2 +6.1 62 +13 +15 1019.9 994.4 +10.2
06 16.09 С 2 10 км ясно +26.3 +7.8 31 +26 +38 жарко 1020.2 995.7 +10.2
09 16.09 С 3 10 км ясно +27.9 +8.5 30 +28 +38 жарко 1019.5 995.2
12 16.09 С 4 10 км ясно +28.2 +10.2 33 +29 +30 жарко 1018.2 994.0
15 16.09 С 2 10 км ясно +20.6 +11.2 55 +23 +23 комфорт 1019.2 994.4 +28.4
18 16.09 С 1 10 км ясно +16.3 +8.5 60 +17 +17 1020.0 994.8 +28.4
21 16.09 штиль 0 10 км ясно +11.6 +9.0 84 +11 +11 1019.5 993.9
00 17.09 штиль 0 10 км ясно +10.4 +8.4 87 +10 +10 1019.4 993.7

 

Местоположение метеостанции Бурдалык (Лебапский велаят, Туркменистан): широта 38.47 долгота 64.37 высота над уровнем моря 212 м.

В архиве по умолчанию представлена погода в Бурдалыке за последнюю неделю. Архивные данные за месяц целиком и за предыдущие месяцы, начиная с января 2011 года, Вы можете получить, выбрав интересующий диапазон дат из раскрывающегося списка и нажав кнопку "Ввод!".


*Определитесь, кто Вы:
робот инопланетянин человек

Внимание! Время в таблицах - всемирное. Для получения местного времени необходимо прибавить поправку, которая равна 5 ч.

Смотрите также архив погоды в соседних городах и на ближайших метеорологических станциях:

Погода в Туркменабаде (Лебапский велаят, Туркменистан) (95 км)
Погода в Атамурате (Лебапский велаят, Туркменистан) (102 км)
Погода в Карши (Кашкадарьинская область, Узбекистан) (123 км)
Погода в Каракуле (Бухарская область, Узбекистан) (123 км)
Погода в Бухаре (Бухарская область, Узбекистан) (141 км)
Погода в Багтыярлыке (Марыйский велаят, Туркменистан) (144 км)
Погода в Гузаре (Кашкадарьинская область, Узбекистан) (166 км)
Погода в Койтендаге (Дашогузский велаят, Туркменистан) (179 км)
Погода в Дехканабаде (Сырдарьинская область, Узбекистан) (186 км)
Погода в Навои (Навоийская область, Узбекистан) (203 км)

Пояснения к столбцам:

Ветер - указаны скорость ветра в м/с - средняя за 10 мин, порывы в срок и между сроками (в фигурных скобках) и направление, откуда дует ветер: С - северный, СВ - северо-восточный, В - восточный, ЮВ - юго-восточный, Ю - южный, ЮЗ - юго-западный, З - западный, СЗ - северо-западный.
Видимость - горизонтальная дальность видимости в метрах или километрах. При видимости от 1 до 10 км при отсутствии осадков обычно наблюдается дымка, при ухудшении видимости до 1 км и менее - туман. В сухую погоду видимость может ухудшаться дымом, пылью или мглою.
Явления - указаны атмосферные явления, наблюдавшиеся в срок или в последний час перед сроком; фигурными скобками обозначены явления, наблюдавшиеся между сроками (за 1-3 часа до срока); квадратными скобками обозначены град или гололедные отложения с указанием их диаметра в мм.
Облачность - указаны через наклонную черту общая и нижняя облачность в баллах и высота нижней границы облаков в метрах; квадратными скобками обозначены формы облаков: Ci - перистые, Cs - перисто-слоистые, Cc - перисто-кучевые, Ac - высококучевые, As - высокослоистые, Sc - слоисто-кучевые, Ns - слоисто-дождевые, Cu - кучевые, Cb - кучево-дождевые. Подробнее классификацию облаков см. в Атласе облаков (PDF).
T - Температура воздуха - температура, измеренная на высоте 2 м над землей.
Td - Температура точки росы - температура, при понижении до которой содержащийся в воздухе водяной пар достигнет насыщения.
f - Относительная влажность воздуха - влажноcть воздуха, измеренная на высоте 2 м над землей.
Te - Эффективная температура - температура, которую ощущает одетый по сезону человек в тени. Характеристика душности погоды. При расчете учитывается влияние влажности воздуха и скорости ветра на теплоощущения человека.
Tes - Эффективная температура на солнце - температура, которую ощущает человек, с поправкой на солнечный нагрев. Характеристика знойности погоды. Зависит от высоты солнца над горизонтом, облачности и скорости ветра. Ночью, в пасмурную погоду, а также при ветре 12 м/с и более поправка равна нулю.
P - Атмосферное давление - приведенное к уровню моря атмосферное давление.
Po - Атмосферное давление - измеренное на уровне метеостанции атмосферное давление.
Tmin - Минимальная температура - минимум температуры воздуха на высоте 2 м над землей.
Tmax - Максимальная температура - максимум температуры воздуха на высоте 2 м над землей.
R - Количество осадков - Количество выпавших осадков за период времени, мм. При наведении курсора мыши на число - период времени, за который выпало указанное количество осадков.
R24 - Количество осадков - Количество выпавших осадков за 24 часа, мм.
S - Снежный покров - Высота снежного покрова, см. При наведении курсора мыши на число - состояние снежного покрова и степень покрытия местности в баллах.